Weather Roundup
Issued by NWS Chicago, IL

Home | Current Version | Previous Version | Graphics & Text | Print | Product List | Glossary On
Versions: 1 2 3 4 5 6 7 8 9 10 11 12 13 14 15 16 17 18 19 20 21 22 23 24 25 26 27 28 29 30 31 32 33 34 35 36 37 38 39 40 41 42 43 44 45 46 47 48 49 50
000
NZUS59 KLOT 250504
HRRLOT

CHICAGO AREA WEATHER ROUNDUP
NATIONAL WEATHER SERVICE CHICAGO/ROMEOVILLE IL
1200 AM CDT MON SEP 25 2017

NOTE: "FAIR" INDICATES FEW OR NO CLOUDS BELOW 12,000 FEET WITH NO
SIGNIFICANT WEATHER AND/OR OBSTRUCTIONS TO VISIBILITY.

* THESE STATIONS ARE NOT UNDER NWS QUALITY CONTROL. THEY ALSO MAY NOT
  REPORT WEATHER SUCH AS PRECIPITATION OR FOG.

ILZ005-006-012>014-019>023-250600-
NORTHEAST ILLINOIS

CITY           SKY/WX    TMP DP  RH WIND       PRES   REMARKS
OHARE          CLEAR     73  61  65 SE5       30.00F
MIDWAY         CLEAR     78  61  55 S6        30.00F HX  80
AURORA         CLEAR     69  62  78 SE3       30.00F
LANSING*       CLEAR     68  64  85 CALM      30.01F
JOLIET*        CLEAR     75  61  61 SE5       30.00S
WAUKEGAN       CLEAR     73  67  81 SE6       30.00F
DUPAGE AIRPORT CLEAR     69  62  78 SE5       30.00S
WHEELING       CLEAR     71  65  81 CALM      30.01F
MORRIS*        CLEAR     72  62  71 E5        29.99S
NORTHERLY ISL    N/A     71  66  84 CALM        N/A
$$

WIZ051-052-058>065-066-070>072-250600-
SOUTHEAST WISCONSIN

CITY           SKY/WX    TMP DP  RH WIND       PRES   REMARKS
MILWAUKEE      CLEAR     74  62  66 S6        30.00F
KENOSHA*       CLEAR     70  61  73 SE5       30.01F
RACINE*        CLEAR     71  65  81 S3        30.02F
$$

INZ001>003-010>013-019-020-250600-
NORTHWEST INDIANA

CITY           SKY/WX    TMP DP  RH WIND       PRES   REMARKS
GARY*          CLEAR     73  58  60 SE5       30.02S
MICHIGAN CITY* NOT AVBL
RENSSELAER*    NOT AVBL
VALPARAISO     CLEAR     66  59  78 NE3       30.03F
$$

LMZ740>746-250600-
SOUTHERN LAKE MICHIGAN

STATION/POSITION TIME  SKY/WX   TEMP WIND        PRES    VSBY
                                AIR  DIR/SP/G
                 (UTC)          (F)  (DEG/KT/KT) (MB)    (MI)
HARRISON CRIB    0440            75  150/  7/  8   N/A
BURNHAM HARBOR   0500            71                N/A
CALUMET HARBOR   0430            76  170/  2/  3 1015.6S
BURNS HARBOR     0440            79  140/  9/ 13 1016.9S
MICHIGAN CITY    0440            74  130/  7/  8   N/A
$$

ABBREVIATIONS USED IN REMARKS
   TC - TEMPERATURE IN CELSIUS
  WCI - WIND CHILL INDEX
   HX - HEAT INDEX
  VSB - VISIBILITY
$$




USA.gov is the U.S. government's official web portal to all federal, state and local government web resources and services.